Home   Weather   Khan Yunis   Past weeks

Flag for Palestinian Territories Past Weather in Khan Yunis, Gaza Strip, Palestinian Territories — Yesterday and Last 2 Weeks

Now
61 °F

Partly sunny.


Feels Like: 61 °F
Forecast: 50 / 63 °F
Wind: 6 mph from North

Location: El Arish

Current Time: Jan 20, 2017 at 6:44:29 pm

Latest Report: Jan 20, 2017 at 5:00 pm


Visibility: N/A

Pressure: 30.12 "Hg

Humidity: 68%

Dew Point: 50 °F

Location of Khan YunisLocation

Past Weather in Khan Yunis — Graph

°F

Khan Yunis Temperature Yesterday

Maximum temperature yesterday: 68 °F (at 1:00 pm)
Minimum temperature yesterday: 43 °F (at 7:00 am)
Average temperature yesterday: 55 °F

High & Low Weather Summary for the Past Weeks

 TemperatureHumidityPressure
High75 °F (Jan 17, 12:00 pm)100% (Jan 6, 3:00 am)30.27 "Hg (Jan 6, 3:00 am)
Low34 °F (Jan 11, 7:00 am)22% (Jan 7, 12:00 pm)29.83 "Hg (Jan 15, 4:00 am)
Average53 °F67%30.07 "Hg
* Reported Jan 5 5:00 pm — Jan 20 5:00 pm, Khan Yunis, Weather by CustomWeather, © 2017

Note: Actual official high and low records may vary slightly from our data, if they occured in-between our weather recording intervals... More about our weather records

Advertising

Khan Yunis Weather History for the Previous 24 Hours

Scroll right to see more
 ConditionsComfort  
Time TempWeatherWind HumidityBarometerVisibility
5:00 pm
Fri, Jan 20
61 °FPartly sunny.6 mph68%30.12 "HgN/A
4:00 pm63 °FPartly sunny.7 mph64%30.12 "HgN/A
2:00 pm64 °FPartly sunny.8 mph56%30.12 "HgN/A
12:00 pm64 °FSunny.3 mph60%30.21 "Hg10 mi
11:00 am63 °FSunny.3 mph64%30.21 "Hg10 mi
10:00 am59 °FSunny.3 mph68%30.21 "Hg10 mi
9:00 am54 °FSunny.5 mph88%30.21 "Hg10 mi
8:00 am43 °FSunny.2 mph100%30.21 "Hg10 mi
7:00 am39 °FSunny.3 mph93%30.21 "Hg10 mi
6:00 am39 °FClear.2 mph93%30.18 "Hg10 mi
5:00 am39 °FClear.2 mph93%30.18 "Hg10 mi
4:00 am43 °FClear.10 mph93%30.18 "Hg10 mi
3:00 am43 °FClear.2 mph93%30.18 "Hg10 mi
2:00 am43 °FClear.2 mph93%30.18 "Hg10 mi
1:00 am45 °FClear.2 mph93%30.21 "Hg10 mi
12:00 am45 °FClear.5 mph93%30.21 "Hg10 mi
11:00 pm
Thu, Jan 19
46 °FClear.3 mph87%30.21 "Hg10 mi
10:00 pm48 °FClear.No wind82%30.21 "Hg10 mi
9:00 pm50 °FClear.No wind82%30.21 "Hg10 mi
8:00 pm50 °FClear.No wind82%30.21 "Hg10 mi
7:00 pm55 °FClear.No wind72%30.21 "Hg10 mi
6:00 pm57 °FClear.2 mph72%30.18 "Hg10 mi
Weather by CustomWeather, © 2017

See weather overviewHow to use our weather pages